Regional Weather Roundup
Issued by NWS

Home | Current Version | Previous Version | Text Only | Print | Product List | Glossary Off
Versions: 1 2 3 4 5 6 7 8 9 10 11 12 13 14 15 16 17 18 19 20 21 22 23 24 25 26 27 28 29 30 31 32 33 34 35 36 37 38 39 40 41 42 43 44 45 46 47 48 49 50

000
ASUS45 KCYS 291110
RWRWY

WYOMING REGIONAL WEATHER ROUNDUP
NATIONAL WEATHER SERVICE CHEYENNE WY
500 AM MDT WED JUL 29 2015

NOTE:  "FAIR" INDICATES FEW OR NO CLOUDS BELOW 12,000 FEET
WITH NO SIGNIFICANT WEATHER AND/OR OBSTRUCTIONS TO VISIBILITY.

WYZ001-291200-
YELLOWSTONE NATIONAL PARK

CITY           SKY/WX    TMP DP  RH WIND       PRES   REMARKS
LK YELLOWSTONE   N/A     28  26  92 VRB3      30.48R
W YELLOWSTONE  NOT AVBL

$$
WYZ002>013-054>058-071-098>099-291200-
NORTHERN WYOMING

CITY           SKY/WX    TMP DP  RH WIND       PRES   REMARKS
JACKSON        FAIR      34  30  86 CALM      30.43S
CODY           FAIR      52  34  50 SW7       30.32S
GREYBULL       FAIR      47  37  68 CALM      30.28R
WORLAND        FAIR      48  32  53 S9        30.29R
SHERIDAN       FAIR      58  32  37 W10       30.26R
BUFFALO        FAIR      52  32  46 W8        30.32R
GILLETTE       FAIR      54  35  48 SW14      30.28R
HULETT         FAIR      52  36  54 SW9       30.27S
NEWCASTLE      FAIR      45  36  70 CALM      30.31R

$$
WYZ014>020-022>026-101>103-291200-
CENTRAL WYOMING

CITY           SKY/WX    TMP DP  RH WIND       PRES   REMARKS
BIG PINEY      FAIR      35  27  72 E3        30.43R
PINEDALE       FAIR      32  30  93 W6        30.43S WCI  26
DUBOIS         FAIR      36  28  75 NW7       30.42S WCI  30
LANDER         FAIR      47  30  51 SW6       30.35R
RIVERTON       FAIR      49  32  52 NW13      30.36R
CASPER         FAIR      39  31  72 N6        30.34S WCI  35
DOUGLAS        FAIR      42  31  64 S3        30.35R

$$
WYZ021-027>030-104>119-291200-
SOUTHERN WYOMING

CITY           SKY/WX    TMP DP  RH WIND       PRES   REMARKS
EVANSTON       FAIR      44  24  45 E6        30.41S
KEMMERER       FAIR      37  30  75 N10       30.43R WCI  30
FORT BRIDGER   SUNNY     50  25  37 SW3       30.44S
ROCK SPRINGS   FAIR      48  24  39 CALM      30.39S
DIXON          FAIR      41  22  46 CALM      30.38S
RAWLINS        FAIR      39  21  48 N3        30.37S
SARATOGA       FAIR      37  19  48 CALM      30.39R
LARAMIE        FAIR      47  35  63 S8        30.38R
CHEYENNE       FAIR      48  33  56 W8        30.36R
TORRINGTON     FAIR      50  38  63 N6        30.29R
PINE BLUFFS    FAIR      43  37  81 CALM      30.33R

$$



USA.gov is the U.S. government's official web portal to all federal, state and local government web resources and services.